RH
89 90 90 90 89 88 90 88 91 90 85 94 73 68 69 69 60 70 73 83 93 92 94 92 90 86 85 85 93 96 98 95 95
91 92 92 90 90 90 88 84 86 82 93 91 68 68 55 61 71 89 95 89 84 77 80 79 77 86 83 86 95 97 97 96 96
92 92 91 90 89 91 86 79 78 92 78 74 69 64 74 80 97 89 81 76 80 85 77 76 79 82 74 81 95 98 96 95 94
92 91 90 86 87 90 83 76 92 76 77 70 64 68 84 96 88 78 75 76 76 83 72 87 77 78 82 78 88 96 92 92 92
92 86 86 88 89 89 81 90 94 88 71 68 65 83 92 84 78 71 76 78 77 81 73 79 86 77 80 84 78 84 80 85 83
84 85 84 84 90 88 87 97 88 76 71 69 75 87 90 78 68 77 77 79 77 87 74 79 82 82 80 81 82 79 77 78 79
83 85 82 84 85 90 95 94 78 75 73 74 80 85 86 74 78 80 81 77 80 81 86 74 79 80 77 80 79 78 80 80 82
88 83 82 84 85 90 97 84 76 72 70 80 82 84 76 70 82 80 79 80 79 85 96 77 80 79 85 77 80 81 77 81 80
87 82 84 88 88 92 95 82 78 72 74 83 78 78 74 78 79 78 78 80 80 95 77 80 79 87 75 84 81 77 82 79 78
88 84 83 87 87 94 88 88 79 74 75 82 76 74 71 78 79 80 78 78 89 81 73 78 77 79 79 79 79 84 76 82 80
89 86 84 83 80 89 87 88 82 76 77 85 77 73 76 77 79 77 80 78 76 73 75 76 77 84 82 80 81 81 78 84 79
89 86 89 77 69 85 86 91 85 83 84 88 85 80 80 78 76 72 77 80 76 75 75 79 78 78 76 80 81 80 79 83 87
89 85 86 71 66 87 85 90 95 91 90 94 96 88 84 79 75 71 62 70 75 80 80 77 75 75 80 78 79 81 80 83 86
84 85 85 58 70 86 83 76 90 95 98 96 96 93 83 80 76 75 71 71 72 80 83 81 78 75 84 77 80 80 83 83 82
86 82 83 54 71 80 65 71 92 89 96 97 97 94 85 80 77 77 77 78 76 71 75 82 82 82 82 82 76 77 82 83 86
88 80 77 61 71 63 57 83 88 95 91 88 94 92 89 84 78 77 76 71 68 68 56 77 86 84 85 84 84 77 77 82 86
88 80 76 64 62 62 60 79 94 92 83 84 75 83 80 86 85 80 77 72 62 56 53 50 50 80 82 82 87 86 80 79 85
85 78 74 67 57 62 68 83 84 89 85 75 70 88 92 85 78 79 78 74 70 70 71 70 65 52 52 71 77 86 81 82 85
78 66 66 67 62 60 72 78 79 83 81 73 62 62 72 91 94 85 83 79 75 76 77 76 73 70 60 44 57 86 82 81 81
73 68 66 71 66 60 65 76 76 76 77 74 72 64 73 71 85 95 88 88 83 79 78 76 74 73 68 57 48 85 84 82 84
Wind_Speed
12 10 10 11 12 14 15 17 19 18 15 16 18 17 15 14 18 22 22 18 17 21 20 22 21 20 18 18 18 19 20 22 23
12 12 11 10 12 13 14 17 19 18 17 20 20 17 14 20 21 17 20 20 19 17 16 19 18 19 18 17 17 19 21 20 21
13 12 12 12 12 13 14 17 18 17 20 22 19 18 24 21 20 23 21 17 16 16 18 16 15 17 18 17 18 21 20 19 19
15 13 13 13 13 13 14 17 17 18 22 21 19 23 19 24 23 21 17 16 16 16 17 17 17 16 16 16 17 19 18 18 18
17 17 15 14 14 14 16 18 16 20 24 22 22 23 23 24 21 17 16 16 16 16 17 17 16 17 15 14 13 15 13 15 14
18 19 17 16 14 15 17 17 18 24 24 24 24 22 22 20 17 19 16 15 15 16 16 16 16 17 16 14 14 14 14 14 14
23 20 19 17 16 16 18 17 22 25 26 26 25 26 22 20 19 17 16 16 16 15 16 16 16 16 16 16 15 14 14 14 15
25 24 21 19 19 19 19 20 22 25 26 27 26 23 20 17 19 17 16 15 16 15 17 14 15 15 16 15 16 15 14 14 15
28 27 26 23 22 22 22 21 23 26 27 26 25 21 19 19 20 18 16 15 16 16 15 15 13 15 15 15 15 14 15 14 15
31 29 28 26 26 24 24 21 24 27 27 25 24 22 20 23 21 18 15 16 13 16 13 14 13 12 13 13 13 13 13 13 14
34 31 29 27 29 27 23 21 24 28 28 26 24 24 24 25 22 20 18 17 15 13 12 12 11 11 13 12 12 12 11 12 13
35 34 30 29 31 31 24 23 23 30 30 28 26 26 26 25 22 19 18 17 16 13 12 11 10 9 9 9 10 11 10 10 11
36 34 33 30 34 35 28 25 27 29 30 28 25 28 27 24 21 17 15 15 15 13 11 10 9 8 8 9 9 9 9 9 10
36 35 34 33 37 35 29 26 28 29 29 27 25 27 25 22 20 17 14 11 10 15 13 11 9 7 6 7 7 7 7 8 9
37 36 34 36 38 34 28 29 29 30 29 25 24 24 23 19 16 16 13 10 9 13 13 13 12 9 7 6 6 6 6 6 8
39 36 37 39 40 35 32 33 33 31 28 26 20 16 14 15 16 14 12 10 9 11 11 13 11 11 9 6 5 5 4 6 6
40 38 41 43 39 34 35 38 30 27 32 18 12 3 3 10 13 13 13 11 11 11 12 11 10 11 10 8 7 4 4 3 5
41 39 44 44 41 39 40 41 38 27 31 30 9 2 4 4 9 16 15 15 14 13 12 10 9 8 9 9 8 5 6 4 4
42 43 46 46 43 42 43 43 38 33 30 31 13 7 13 3 2 13 19 18 18 16 15 13 11 8 7 7 10 9 6 5 4
46 46 46 46 45 42 43 45 42 40 34 30 14 11 8 8 4 3 8 20 22 20 18 16 14 12 9 8 8 11 7 6 4
Wind_Direction
157 152 152 152 148 145 142 140 137 130 121 114 126 130 126 131 121 122 116 117 115 94 87 88 86 83 84 84 74 77 78 74 72
162 157 156 155 153 150 146 143 139 130 127 126 126 126 125 130 135 137 104 99 92 92 88 88 93 83 85 81 71 77 77 74 71
162 160 158 158 157 157 152 145 139 134 132 135 135 129 132 132 119 109 109 108 103 100 100 96 96 94 95 87 74 77 75 72 67
163 161 158 160 163 160 154 146 140 137 141 138 135 138 139 119 114 108 111 112 108 100 100 96 94 95 99 95 80 76 74 69 64
166 158 164 165 163 162 156 147 141 139 148 141 138 140 135 125 121 118 117 115 113 111 101 98 96 92 97 95 92 75 70 63 64
170 159 164 168 167 163 157 149 149 150 149 146 145 150 136 129 134 122 122 118 114 110 106 99 99 93 94 92 87 81 74 72 71
167 166 163 172 171 165 159 159 153 155 156 153 154 149 136 135 128 125 124 117 116 120 108 101 98 96 95 92 89 84 80 76 73
168 164 169 173 172 167 166 161 156 158 156 155 156 147 145 146 131 132 126 122 119 117 114 101 103 100 98 95 89 86 80 76 72
175 173 171 174 174 171 174 161 161 166 159 159 157 151 150 139 134 131 126 124 123 119 106 108 108 102 99 97 94 89 85 79 74
179 178 174 175 174 178 170 166 165 166 165 164 166 158 152 139 137 134 127 126 121 117 112 110 106 108 105 101 96 90 85 81 76
182 182 179 176 175 174 170 168 172 172 169 168 163 158 147 145 143 139 132 125 125 120 120 119 114 110 107 103 100 92 88 83 77
188 183 184 179 175 170 169 166 170 168 169 167 163 158 153 151 149 147 141 131 130 120 121 121 119 116 113 108 100 95 89 83 81
191 188 186 182 176 170 171 170 168 170 169 167 160 161 157 156 155 154 149 142 139 135 133 131 124 121 123 106 101 93 88 83 79
196 194 188 182 179 174 175 179 175 175 172 166 162 164 161 162 160 162 161 162 154 157 148 147 144 134 129 119 106 102 88 86 82
199 195 192 187 182 178 182 183 180 176 170 163 163 168 166 171 170 169 170 173 171 174 175 170 164 153 134 131 115 109 96 88 86
201 198 192 191 181 185 182 183 182 176 173 158 144 151 175 180 175 180 178 183 184 183 186 180 176 168 144 146 136 139 107 98 97
205 200 198 194 186 188 184 185 177 177 176 164 137 147 149 190 193 198 195 198 192 187 181 186 193 199 193 180 172 144 150 105 115
208 204 201 196 191 188 187 186 180 172 177 171 151 134 206 148 213 210 204 206 201 197 195 195 193 199 208 210 191 165 154 140 129
208 205 201 198 195 192 188 188 181 178 179 177 182 178 146 163 185 216 211 212 212 209 208 208 208 213 217 212 198 180 177 175 165
207 203 200 201 198 197 191 189 187 188 184 185 178 167 165 154 139 179 196 220 218 217 220 222 220 223 225 224 208 187 180 191 180